TimeCST,TemperatureF,Dew PointF,Humidity,Sea Level PressureIn,VisibilityMPH,Wind Direction,Wind SpeedMPH,Gust SpeedMPH,PrecipitationIn,Events,Conditions,WindDirDegrees,DateUTC
12:15 AM,56.8,55.9,97,29.88,7.0,ESE,11.5,-,N/A,Rain,Light Rain,120,2013-01-11 06:15:00
12:35 AM,57.6,56.7,97,29.88,7.0,SE,10.4,17.3,0.01,Rain,Rain,140,2013-01-11 06:35:00
12:55 AM,58.3,57.4,97,29.88,4.0,SE,15.0,-,0.08,Rain,Rain,130,2013-01-11 06:55:00
1:15 AM,59.0,57.9,96,29.89,4.0,SSE,10.4,-,0.07,Rain,Heavy Rain,150,2013-01-11 07:15:00
1:35 AM,58.8,57.9,97,29.89,4.0,SE,8.1,-,0.19,Rain,Heavy Rain,140,2013-01-11 07:35:00
1:55 AM,59.7,58.8,97,29.89,5.0,SSE,12.7,-,0.30,Rain-Thunderstorm,Heavy Thunderstorms and Rain,160,2013-01-11 07:55:00
2:15 AM,59.4,58.3,96,29.88,7.0,SSE,8.1,-,0.05,Rain-Thunderstorm,Heavy Thunderstorms and Rain,160,2013-01-11 08:15:00
2:35 AM,58.5,56.1,92,29.86,10.0,SE,10.4,-,0.11,Rain-Thunderstorm,Thunderstorms and Rain,140,2013-01-11 08:35:00
2:55 AM,57.2,55.2,93,29.86,10.0,SE,8.1,-,0.11,Rain-Thunderstorm,Light Thunderstorms and Rain,140,2013-01-11 08:55:00
3:15 AM,57.2,55.6,94,29.86,10.0,SE,11.5,-,N/A,Rain,Light Rain,130,2013-01-11 09:15:00
3:35 AM,56.5,55.2,96,29.83,10.0,SSE,8.1,-,0.01,Rain,Light Rain,150,2013-01-11 09:35:00
3:55 AM,55.6,54.3,96,29.84,10.0,SE,10.4,-,0.01,,Scattered Clouds,140,2013-01-11 09:55:00
4:15 AM,56.3,55.0,96,29.84,10.0,SE,11.5,-,N/A,Rain,Light Rain,140,2013-01-11 10:15:00
4:55 AM,57.2,55.9,96,29.84,10.0,SSE,13.8,-,N/A,,Overcast,160,2013-01-11 10:55:00
5:15 AM,57.6,56.3,96,29.85,10.0,South,12.7,-,N/A,,Overcast,170,2013-01-11 11:15:00
5:35 AM,58.1,56.5,94,29.85,10.0,South,12.7,-,N/A,,Overcast,190,2013-01-11 11:35:00
5:55 AM,57.2,55.6,94,29.86,10.0,South,10.4,-,N/A,,Scattered Clouds,180,2013-01-11 11:55:00
6:15 AM,56.8,55.0,94,29.86,10.0,South,10.4,-,N/A,,Scattered Clouds,190,2013-01-11 12:15:00
6:35 AM,56.7,55.0,94,29.87,10.0,South,9.2,-,N/A,,Mostly Cloudy,190,2013-01-11 12:35:00
6:55 AM,56.7,54.9,94,29.89,10.0,South,11.5,-,N/A,,Mostly Cloudy,190,2013-01-11 12:55:00
7:15 AM,57.0,55.4,94,29.89,10.0,South,10.4,-,N/A,,Mostly Cloudy,190,2013-01-11 13:15:00
7:35 AM,57.2,55.4,94,29.90,10.0,SSW,11.5,-,N/A,,Mostly Cloudy,200,2013-01-11 13:35:00
7:55 AM,57.2,54.9,92,29.91,10.0,SSW,10.4,-,N/A,,Mostly Cloudy,200,2013-01-11 13:55:00
8:15 AM,57.2,54.5,91,29.92,10.0,SSW,11.5,-,N/A,,Overcast,200,2013-01-11 14:15:00
8:35 AM,57.6,54.3,89,29.93,10.0,SSW,13.8,-,N/A,,Overcast,210,2013-01-11 14:35:00
8:55 AM,57.7,54.5,89,29.93,10.0,SSW,16.1,19.6,N/A,,Mostly Cloudy,200,2013-01-11 14:55:00
9:15 AM,57.9,52.7,83,29.93,10.0,SSW,19.6,23.0,N/A,,Scattered Clouds,200,2013-01-11 15:15:00
9:35 AM,58.1,52.2,81,29.94,10.0,SSW,19.6,24.2,N/A,,Scattered Clouds,210,2013-01-11 15:35:00
9:55 AM,58.1,50.7,76,29.95,10.0,SSW,18.4,23.0,N/A,,Scattered Clouds,210,2013-01-11 15:55:00
10:15 AM,57.6,48.2,71,29.95,10.0,SSW,17.3,24.2,N/A,,Scattered Clouds,210,2013-01-11 16:15:00
10:55 AM,58.6,49.1,71,29.93,10.0,South,15.0,-,N/A,,Clear,190,2013-01-11 16:55:00
11:15 AM,58.8,48.9,70,29.92,10.0,South,11.5,-,N/A,,Clear,190,2013-01-11 17:15:00
12:15 PM,58.1,49.3,72,29.90,10.0,South,10.4,-,N/A,,Scattered Clouds,190,2013-01-11 18:15:00
12:35 PM,58.8,48.9,70,29.90,10.0,SSW,15.0,20.7,N/A,,Scattered Clouds,200,2013-01-11 18:35:00
12:55 PM,60.1,49.8,69,29.89,10.0,South,15.0,24.2,N/A,,Clear,180,2013-01-11 18:55:00
1:15 PM,60.4,50.4,69,29.89,10.0,South,15.0,18.4,N/A,,Scattered Clouds,180,2013-01-11 19:15:00
1:35 PM,61.0,50.5,68,29.89,10.0,South,16.1,21.9,N/A,,Scattered Clouds,180,2013-01-11 19:35:00
1:55 PM,60.1,49.5,68,29.89,10.0,South,19.6,-,N/A,,Scattered Clouds,180,2013-01-11 19:55:00
2:15 PM,59.5,50.0,71,29.90,10.0,South,13.8,-,N/A,,Mostly Cloudy,180,2013-01-11 20:15:00
2:35 PM,59.9,49.8,69,29.90,10.0,South,13.8,-,N/A,,Scattered Clouds,170,2013-01-11 20:35:00
2:55 PM,60.4,50.2,69,29.89,10.0,South,16.1,21.9,N/A,,Clear,170,2013-01-11 20:55:00
3:15 PM,59.9,50.2,70,29.89,10.0,SSE,13.8,18.4,N/A,,Clear,160,2013-01-11 21:15:00
3:55 PM,59.9,49.6,69,29.89,10.0,South,12.7,-,N/A,,Clear,170,2013-01-11 21:55:00
4:15 PM,59.0,50.0,72,29.89,10.0,SSE,12.7,-,N/A,,Clear,160,2013-01-11 22:15:00
4:35 PM,58.1,49.8,74,29.89,10.0,South,11.5,-,N/A,,Clear,170,2013-01-11 22:35:00
4:55 PM,57.2,49.3,75,29.91,10.0,South,10.4,-,N/A,,Clear,170,2013-01-11 22:55:00
5:15 PM,57.2,49.1,74,29.91,10.0,South,11.5,-,N/A,,Clear,170,2013-01-11 23:15:00
5:35 PM,55.8,48.7,77,29.90,10.0,South,9.2,-,N/A,,Clear,170,2013-01-11 23:35:00
5:55 PM,54.9,48.4,79,29.90,10.0,SSE,6.9,-,N/A,,Clear,160,2013-01-11 23:55:00
6:15 PM,54.9,48.6,79,29.90,10.0,South,9.2,-,N/A,,Clear,170,2013-01-12 00:15:00
6:35 PM,54.5,48.4,80,29.90,10.0,South,9.2,-,N/A,,Clear,170,2013-01-12 00:35:00
6:55 PM,54.7,48.4,79,29.90,10.0,SSE,10.4,-,N/A,,Clear,160,2013-01-12 00:55:00
7:15 PM,55.0,48.4,78,29.89,10.0,South,11.5,-,N/A,,Clear,170,2013-01-12 01:15:00
7:55 PM,54.7,48.2,79,29.89,10.0,SSE,10.4,-,N/A,,Clear,160,2013-01-12 01:55:00
8:15 PM,54.1,48.2,80,29.90,10.0,South,9.2,-,N/A,,Clear,170,2013-01-12 02:15:00
8:35 PM,54.5,48.2,79,29.91,10.0,South,9.2,-,N/A,,Clear,170,2013-01-12 02:35:00
8:55 PM,54.1,47.8,79,29.91,10.0,SSE,8.1,-,N/A,,Clear,160,2013-01-12 02:55:00
9:15 PM,54.3,47.7,78,29.91,10.0,SSE,9.2,-,N/A,,Clear,160,2013-01-12 03:15:00
9:35 PM,53.8,47.5,79,29.91,10.0,SSE,6.9,-,N/A,,Clear,160,2013-01-12 03:35:00
9:55 PM,53.2,47.5,81,29.90,10.0,SSE,9.2,-,N/A,,Clear,150,2013-01-12 03:55:00
10:15 PM,52.9,47.1,81,29.91,10.0,South,8.1,-,N/A,,Clear,170,2013-01-12 04:15:00
10:35 PM,53.6,47.3,79,29.90,10.0,SSE,8.1,-,N/A,,Clear,160,2013-01-12 04:35:00
11:15 PM,53.8,47.1,78,29.89,10.0,South,10.4,-,N/A,,Clear,170,2013-01-12 05:15:00
11:35 PM,52.7,46.6,80,29.89,10.0,SSE,8.1,-,N/A,,Clear,160,2013-01-12 05:35:00
11:55 PM,52.9,46.8,80,29.89,10.0,SSE,9.2,-,N/A,,Clear,150,2013-01-12 05:55:00